20050421,000002,550635,32.651546,-119.485815,14.441,33.110,0.470,0.926
20050421,000032,550665,32.651523,-119.485925,14.430,33.116,0.477,0.864
20050421,000103,550696,32.651503,-119.486035,14.427,33.117,0.470,0.738
20050421,000132,550725,32.651466,-119.486148,14.425,33.117,0.489,0.738
20050421,000202,550755,32.651425,-119.486260,14.418,33.118,0.489,0.752
20050421,000232,550785,32.651405,-119.486375,14.411,33.126,0.483,0.864
20050421,000302,550815,32.651351,-119.486490,14.411,33.122,0.483,0.927
20050421,000332,550845,32.651295,-119.486608,14.412,33.120,0.495,0.845
20050421,000403,550876,32.651285,-119.486718,14.408,33.121,0.502,0.949
20050421,000432,550905,32.651256,-119.486840,14.404,33.122,0.546,1.075
20050421,000502,550935,32.651220,-119.486958,14.400,33.123,0.565,1.116
20050421,000532,550965,32.651201,-119.487075,14.400,33.119,0.540,1.049
20050421,000603,550996,32.651198,-119.487180,14.395,33.122,0.565,1.051
20050421,000633,551026,32.651158,-119.487298,14.392,33.121,0.521,1.011
20050421,000702,551055,32.651138,-119.487415,14.387,33.124,0.527,1.029
20050421,000733,551086,32.651111,-119.487528,14.389,33.118,0.527,0.995
20050421,000803,551116,32.651066,-119.487656,14.383,33.122,0.502,0.813
20050421,000833,551146,32.651010,-119.487776,14.388,33.118,0.495,0.819
20050421,000902,551175,32.650970,-119.487900,14.392,33.113,0.502,0.981
20050421,000933,551206,32.650953,-119.488001,14.396,33.106,0.502,0.971
20050421,001002,551235,32.650890,-119.488115,14.391,33.110,0.489,0.940
20050421,001032,551265,32.650840,-119.488241,14.395,33.106,0.489,0.938
20050421,001102,551295,32.650810,-119.488348,14.401,33.102,0.502,0.957
20050421,001132,551325,32.650773,-119.488476,14.404,33.100,0.521,0.907
20050421,001202,551355,32.650723,-119.488605,14.408,33.097,0.489,0.788
20050421,001232,551385,32.650683,-119.488710,14.412,33.095,0.495,0.814
20050421,001303,551416,32.650641,-119.488823,14.415,33.094,0.477,0.766
20050421,001332,551445,32.650576,-119.488938,14.418,33.093,0.489,0.833
20050421,001402,551475,32.650518,-119.489055,14.420,33.094,0.489,0.920
20050421,001432,551505,32.650443,-119.489183,14.424,33.093,0.508,0.886
20050421,001502,551535,32.650398,-119.489305,14.425,33.095,0.533,0.817
20050421,001533,551566,32.650341,-119.489441,14.425,33.096,0.527,0.987
20050421,001602,551595,32.650308,-119.489566,14.427,33.100,0.527,1.008
20050421,001632,551625,32.650263,-119.489701,14.423,33.104,0.521,0.980
20050421,001703,551656,32.650210,-119.489836,14.424,33.104,0.521,0.979
20050421,001733,551686,32.650143,-119.489948,14.418,33.111,0.527,0.968
20050421,001802,551715,32.650075,-119.490085,14.408,33.122,0.552,1.050
20050421,001833,551746,32.650005,-119.490200,14.397,33.132,0.527,0.995
20050421,001902,551775,32.649950,-119.490313,14.398,33.128,0.533,1.010
20050421,001933,551806,32.649880,-119.490426,14.389,33.133,0.508,0.925
20050421,002002,551835,32.649816,-119.490525,14.384,33.133,0.508,0.818
20050421,002032,551865,32.649753,-119.490618,14.379,33.134,0.514,0.928
20050421,002102,551895,32.649700,-119.490721,14.375,33.135,0.514,0.962
20050421,002133,551926,32.649651,-119.490845,14.369,33.137,0.502,0.928
20050421,002202,551955,32.649590,-119.490945,14.373,33.128,0.527,0.980
20050421,002233,551986,32.649496,-119.491051,14.360,33.135,0.559,1.046
20050421,002303,552016,32.649440,-119.491160,14.356,33.135,0.546,0.952
20050421,002333,552046,32.649346,-119.491303,14.348,33.140,0.552,0.830
20050421,002403,552076,32.649276,-119.491433,14.344,33.137,0.559,0.917
20050421,002433,552106,32.649210,-119.491563,14.341,33.135,0.565,0.917
20050421,002503,552136,32.649148,-119.491681,14.341,33.132,0.552,1.034
20050421,002533,552166,32.649100,-119.491783,14.335,33.134,0.565,0.975
20050421,002603,552196,32.649041,-119.491910,14.325,33.137,0.578,0.977
20050421,002634,552227,32.648978,-119.492036,14.317,33.141,0.571,1.008
20050421,002703,552256,32.648935,-119.492175,14.313,33.140,0.578,1.010
20050421,002733,552286,32.648876,-119.492313,14.322,33.131,0.603,1.150
20050421,002803,552316,32.648801,-119.492451,14.326,33.122,0.578,1.011
20050421,002834,552347,32.648725,-119.492593,14.340,33.107,0.578,0.987
20050421,002903,552376,32.648648,-119.492738,14.352,33.097,0.578,0.963
20050421,002933,552406,32.648580,-119.492858,14.363,33.086,0.616,1.181
20050421,003004,552437,32.648496,-119.493000,14.375,33.079,0.635,1.141
20050421,003033,552466,32.648420,-119.493123,14.391,33.069,0.642,1.210
20050421,003103,552496,32.648340,-119.493266,14.408,33.062,0.635,1.227
20050421,003133,552526,32.648238,-119.493421,14.427,33.053,0.661,1.283
20050421,003203,552556,32.648161,-119.493578,14.434,33.061,0.667,1.172
20050421,003233,552586,32.648081,-119.493728,14.443,33.057,0.642,1.228
20050421,003304,552617,32.648018,-119.493868,14.446,33.068,0.616,1.162
20050421,003334,552647,32.647935,-119.494005,14.450,33.073,0.584,1.087
20050421,003403,552676,32.647855,-119.494146,14.457,33.073,0.591,1.107
20050421,003434,552707,32.647788,-119.494281,14.452,33.085,0.578,1.079
20050421,003503,552736,32.647688,-119.494438,14.454,33.089,0.597,1.115
20050421,003534,552767,32.647591,-119.494598,14.454,33.093,0.610,1.142
20050421,003603,552796,32.647513,-119.494763,14.456,33.097,0.597,1.113
20050421,003634,552827,32.647445,-119.494928,14.461,33.096,0.591,1.077
20050421,003703,552856,32.647376,-119.495108,14.456,33.104,0.603,1.120
20050421,003733,552886,32.647325,-119.495251,14.457,33.104,0.610,1.131
20050421,003803,552916,32.647231,-119.495423,14.458,33.104,0.597,1.097
20050421,003833,552946,32.647120,-119.495573,14.454,33.108,0.591,1.054
20050421,003903,552976,32.646990,-119.495731,14.452,33.112,0.597,1.014
20050421,003933,553006,32.646865,-119.495898,14.447,33.115,0.603,1.092
20050421,004003,553036,32.646795,-119.496046,14.450,33.114,0.616,1.133
20050421,004033,553066,32.646723,-119.496180,14.447,33.116,0.648,1.209
20050421,004103,553096,32.646668,-119.496310,14.443,33.118,0.642,1.200
20050421,004134,553127,32.646575,-119.496471,14.445,33.115,0.680,1.289
20050421,004203,553156,32.646508,-119.496638,14.439,33.120,0.667,1.249
20050421,004233,553186,32.646440,-119.496805,14.436,33.121,0.667,1.239
20050421,004303,553216,32.646361,-119.496971,14.436,33.121,0.667,1.237
20050421,004333,553246,32.646271,-119.497138,14.430,33.123,0.686,1.280
20050421,004403,553276,32.646190,-119.497303,14.423,33.128,0.635,1.170
20050421,004433,553306,32.646088,-119.497498,14.420,33.127,0.674,1.248
20050421,004503,553336,32.646010,-119.497678,14.417,33.130,0.661,1.215
20050421,004534,553367,32.645931,-119.497828,14.415,33.130,0.680,1.253
20050421,004603,553396,32.645835,-119.498001,14.415,33.126,0.693,1.285
20050421,004633,553426,32.645755,-119.498165,14.412,33.127,0.718,1.315
20050421,004703,553456,32.645675,-119.498335,14.414,33.123,0.718,1.334
20050421,004733,553486,32.645580,-119.498486,14.408,33.127,0.712,1.313
20050421,004803,553516,32.645501,-119.498655,14.403,33.128,0.718,1.335
20050421,004833,553546,32.645405,-119.498810,14.401,33.127,0.718,1.338
20050421,004903,553576,32.645330,-119.498975,14.399,33.128,0.725,1.341
20050421,004933,553606,32.645270,-119.499130,14.401,33.123,0.776,1.437
20050421,005003,553636,32.645175,-119.499273,14.401,33.121,0.763,1.410
20050421,005033,553666,32.645070,-119.499435,14.392,33.126,0.744,1.356
20050421,005103,553696,32.644961,-119.499576,14.389,33.126,0.763,1.357
20050421,005133,553726,32.644880,-119.499695,14.396,33.118,0.770,1.390
20050421,005203,553756,32.644810,-119.499823,14.385,33.125,0.763,1.312
20050421,005233,553786,32.644736,-119.499955,14.382,33.126,0.809,1.439
20050421,005304,553817,32.644680,-119.500126,14.374,33.130,0.763,1.235
20050421,005333,553846,32.644610,-119.500328,14.376,33.127,0.789,1.396
20050421,005403,553876,32.644558,-119.500543,14.369,33.128,0.763,1.417
20050421,005433,553906,32.644500,-119.500750,14.369,33.129,0.783,1.463
20050421,005504,553937,32.644441,-119.500961,14.359,33.134,0.789,1.484
20050421,005533,553966,32.644405,-119.501178,14.358,33.134,0.809,1.452
20050421,005603,553996,32.644405,-119.501391,14.354,33.134,0.880,1.603
20050421,005633,554026,32.644403,-119.501595,14.354,33.131,0.900,1.642
20050421,005703,554056,32.644400,-119.501806,14.351,33.129,0.912,1.690
20050421,005733,554086,32.644386,-119.502043,14.350,33.127,0.886,1.687
20050421,005804,554117,32.644385,-119.502270,14.349,33.125,0.867,1.661
20050421,005833,554146,32.644345,-119.502498,14.349,33.123,0.854,1.602
20050421,005904,554177,32.644318,-119.502715,14.345,33.124,0.854,1.632
20050421,005934,554207,32.644265,-119.502926,14.345,33.124,0.860,1.650
20050421,010003,554236,32.644231,-119.503138,14.346,33.121,0.873,1.659
20050421,010033,554266,32.644260,-119.503338,14.346,33.120,0.867,1.590
20050421,010104,554297,32.644280,-119.503530,14.340,33.124,0.822,1.529
20050421,010134,554327,32.644295,-119.503713,14.339,33.124,0.854,1.600
20050421,010203,554356,32.644283,-119.503903,14.343,33.120,0.860,1.608
20050421,010234,554387,32.644268,-119.504108,14.351,33.112,0.860,1.473
20050421,010303,554416,32.644238,-119.504335,14.345,33.115,0.906,1.452
20050421,010333,554446,32.644258,-119.504555,14.351,33.110,0.873,1.573
20050421,010403,554476,32.644263,-119.504763,14.354,33.110,0.873,1.627
20050421,010433,554506,32.644268,-119.504981,14.354,33.111,0.873,1.633
20050421,010503,554536,32.644246,-119.505176,14.358,33.107,0.886,1.653
20050421,010533,554566,32.644200,-119.505361,14.359,33.107,0.938,1.729
20050421,010603,554596,32.644200,-119.505563,14.364,33.104,0.971,1.813
20050421,010633,554626,32.644208,-119.505771,14.358,33.110,0.964,1.825
20050421,010704,554657,32.644238,-119.506000,14.362,33.109,0.919,1.720
20050421,010733,554686,32.644260,-119.506231,14.357,33.114,0.912,1.692
20050421,010803,554716,32.644278,-119.506466,14.363,33.110,0.932,1.731
20050421,010834,554748,32.644265,-119.506678,14.367,33.107,0.925,1.723
20050421,010904,554777,32.644231,-119.506898,14.372,33.104,0.971,1.819
20050421,010934,554807,32.644210,-119.507116,14.370,33.107,0.938,1.741
20050421,011003,554836,32.644188,-119.507328,14.374,33.104,0.925,1.721
20050421,011034,554867,32.644165,-119.507561,14.371,33.110,0.984,1.857
20050421,011103,554896,32.644143,-119.507793,14.369,33.113,0.971,1.818
20050421,011133,554926,32.644135,-119.508018,14.373,33.112,0.971,1.539
20050421,011203,554956,32.644110,-119.508246,14.368,33.117,0.984,1.740
20050421,011233,554986,32.644118,-119.508506,14.369,33.116,0.938,1.667
20050421,011303,555016,32.644105,-119.508826,14.370,33.115,0.977,1.822
20050421,011333,555046,32.644115,-119.509176,14.367,33.117,0.991,1.844
20050421,011403,555076,32.644096,-119.509585,14.369,33.115,0.997,1.852
20050421,011434,555107,32.644120,-119.509980,14.367,33.117,1.030,1.935
20050421,011503,555136,32.644155,-119.510400,14.368,33.116,1.023,1.933
20050421,011533,555166,32.644195,-119.510828,14.369,33.116,1.030,1.941
20050421,011604,555197,32.644223,-119.511263,14.369,33.117,0.991,1.837
20050421,011633,555226,32.644231,-119.511681,14.367,33.117,1.004,1.866
20050421,011704,555257,32.644265,-119.512136,14.369,33.116,1.010,1.892
20050421,011733,555286,32.644313,-119.512611,14.367,33.118,0.997,1.850
20050421,011804,555317,32.644365,-119.513060,14.365,33.121,0.977,1.791
20050421,011834,555347,32.644410,-119.513466,14.369,33.116,1.043,1.936
20050421,011903,555376,32.644428,-119.513893,14.369,33.117,1.017,1.869
20050421,011933,555406,32.644483,-119.514303,14.372,33.113,0.991,1.774
20050421,012004,555437,32.644531,-119.514770,14.373,33.112,1.043,1.834
20050421,012033,555466,32.644571,-119.515275,14.375,33.111,1.075,1.881
20050421,012103,555496,32.644593,-119.515696,14.378,33.109,1.017,1.776
20050421,012134,555527,32.644608,-119.516065,14.375,33.112,1.004,1.795
20050421,012203,555556,32.644613,-119.516383,14.372,33.113,1.017,1.803
20050421,012234,555587,32.644576,-119.516686,14.372,33.116,1.004,1.823
20050421,012303,555616,32.644541,-119.516931,14.373,33.115,1.082,1.984
20050421,012333,555646,32.644463,-119.517165,14.373,33.115,1.089,1.947
20050421,012404,555677,32.644403,-119.517398,14.378,33.111,1.075,1.762
20050421,012433,555706,32.644363,-119.517648,14.372,33.116,1.075,1.895
20050421,012503,555736,32.644345,-119.517903,14.374,33.115,1.056,1.900
20050421,012534,555767,32.644290,-119.518170,14.376,33.113,1.089,1.941
20050421,012604,555797,32.644243,-119.518383,14.377,33.115,1.023,1.790
20050421,012633,555826,32.644191,-119.518548,14.382,33.108,1.095,1.974
20050421,012704,555857,32.644086,-119.518741,14.381,33.112,1.135,1.943
20050421,012733,555886,32.643995,-119.518881,14.381,33.110,1.082,1.702
20050421,012804,555917,32.643880,-119.519063,14.377,33.114,1.063,1.657
20050421,012834,555947,32.643793,-119.519230,14.379,33.112,1.095,1.720
20050421,012903,555976,32.643756,-119.519383,14.377,33.114,1.102,1.776
20050421,012934,556007,32.643718,-119.519555,14.377,33.115,1.102,1.918
20050421,013003,556036,32.643663,-119.519765,14.381,33.112,1.161,1.898
20050421,013033,556066,32.643621,-119.519990,14.378,33.114,1.161,1.832
20050421,013103,556096,32.643566,-119.520250,14.383,33.110,1.161,1.824
20050421,013133,556126,32.643520,-119.520506,14.379,33.113,1.187,1.996
20050421,013203,556156,32.643493,-119.520683,14.378,33.114,1.207,2.018
20050421,013233,556186,32.643425,-119.520855,14.380,33.113,1.200,1.978
20050421,013303,556216,32.643361,-119.520975,14.379,33.113,1.174,1.856
20050421,013334,556247,32.643236,-119.521121,14.378,33.116,1.214,1.942
20050421,013404,556277,32.643113,-119.521250,14.370,33.119,1.233,2.190
20050421,013434,556307,32.642980,-119.521423,14.373,33.115,1.207,2.123
20050421,013504,556337,32.642895,-119.521606,14.372,33.117,1.260,2.048
20050421,013534,556367,32.642875,-119.521866,14.374,33.114,1.220,2.109
20050421,013603,556396,32.642930,-119.522133,14.369,33.118,1.306,2.376
20050421,013634,556427,32.642976,-119.522341,14.368,33.118,1.293,2.332
20050421,013704,556457,32.642991,-119.522505,14.368,33.116,1.260,2.256
20050421,013734,556487,32.643018,-119.522755,14.370,33.115,1.233,2.072
20050421,013803,556516,32.642980,-119.523010,14.369,33.116,1.267,2.040
20050421,013834,556547,32.642921,-119.523271,14.371,33.112,1.227,2.020
20050421,013903,556576,32.642876,-119.523503,14.368,33.115,1.240,2.146
20050421,013934,556607,32.642850,-119.523741,14.369,33.115,1.220,2.131
20050421,014004,556637,32.642850,-119.524076,14.366,33.117,1.286,2.159
20050421,014034,556667,32.642850,-119.524483,14.371,33.112,1.240,1.957
20050421,014104,556697,32.642840,-119.524948,14.361,33.122,1.233,1.941
20050421,014134,556727,32.642836,-119.525418,14.364,33.117,1.280,2.032
20050421,014204,556757,32.642818,-119.525888,14.366,33.117,1.267,1.997
20050421,014234,556787,32.642803,-119.526363,14.359,33.122,1.267,1.995
20050421,014305,556818,32.642806,-119.526861,14.362,33.118,1.260,1.987
20050421,014334,556847,32.642821,-119.527348,14.357,33.120,1.306,2.083
20050421,014404,556877,32.642841,-119.527848,14.359,33.118,1.352,2.181
20050421,014434,556907,32.642861,-119.528341,14.351,33.124,1.359,2.197
20050421,014505,556938,32.642886,-119.528845,14.344,33.127,1.352,2.184
20050421,014535,556968,32.642898,-119.529360,14.344,33.125,1.333,2.147
20050421,014605,556998,32.642906,-119.529883,14.345,33.126,1.286,2.111
20050421,014635,557028,32.642905,-119.530413,14.341,33.125,1.346,2.253
20050421,014705,557058,32.642903,-119.530918,14.347,33.117,1.346,2.343
20050421,014735,557088,32.642853,-119.531430,14.338,33.122,1.306,2.161
20050421,014805,557118,32.642796,-119.531946,14.334,33.122,1.379,2.240
20050421,014835,557148,32.642756,-119.532443,14.326,33.129,1.386,2.314
20050421,014905,557178,32.642738,-119.532928,14.327,33.125,1.405,2.312
20050421,014935,557208,32.642705,-119.533435,14.323,33.127,1.326,2.148
20050421,015005,557238,32.642650,-119.533918,14.318,33.130,1.392,2.379
20050421,015035,557268,32.642591,-119.534306,14.320,33.125,1.366,2.287
20050421,015106,557299,32.642530,-119.534625,14.313,33.130,1.426,2.384
20050421,015135,557328,32.642433,-119.534906,14.306,33.129,1.379,2.341
20050421,015205,557358,32.642338,-119.535153,14.301,33.132,1.392,2.379
20050421,015235,557388,32.642203,-119.535388,14.294,33.135,1.405,2.340
20050421,015305,557418,32.642086,-119.535600,14.293,33.133,1.359,2.180
20050421,015335,557448,32.642001,-119.535833,14.292,33.132,1.372,2.269
20050421,015405,557478,32.641946,-119.536098,14.290,33.127,1.392,2.331
20050421,015435,557508,32.641858,-119.536326,14.282,33.131,1.426,2.339
20050421,015505,557538,32.641750,-119.536523,14.282,33.128,1.359,2.220
20050421,015535,557568,32.641605,-119.536691,14.274,33.132,1.372,2.269
20050421,015605,557598,32.641470,-119.536835,14.267,33.131,1.359,2.252
20050421,015635,557628,32.641318,-119.536985,14.269,33.127,1.379,2.241
20050421,015706,557659,32.641170,-119.537116,14.268,33.126,1.372,2.190
20050421,015735,557688,32.641011,-119.537258,14.268,33.122,1.352,2.191
20050421,015805,557718,32.640893,-119.537425,14.273,33.117,1.405,2.308
20050421,015835,557748,32.640791,-119.537643,14.265,33.121,1.445,2.317
20050421,015905,557778,32.640718,-119.537858,14.261,33.122,1.372,2.157
20050421,015935,557808,32.640695,-119.538018,14.263,33.118,1.426,2.282
20050421,020005,557838,32.640625,-119.538226,14.260,33.121,1.366,2.163
20050421,020035,557868,32.640533,-119.538493,14.260,33.119,1.372,2.196
20050421,020105,557898,32.640421,-119.538723,14.259,33.118,1.386,2.185
20050421,020136,557929,32.640313,-119.538876,14.259,33.118,1.405,2.218
20050421,020205,557958,32.640161,-119.539008,14.261,33.115,1.352,2.104
20050421,020236,557989,32.640038,-119.539180,14.263,33.110,1.346,2.108
20050421,020305,558018,32.639928,-119.539416,14.271,33.105,1.366,2.184
20050421,020335,558048,32.639866,-119.539615,14.265,33.108,1.379,2.215
20050421,020405,558078,32.639793,-119.539755,14.265,33.108,1.352,2.142
20050421,020435,558108,32.639753,-119.539886,14.266,33.107,1.319,2.063
20050421,020505,558138,32.639716,-119.540096,14.270,33.105,1.352,2.122
20050421,020535,558168,32.639620,-119.540360,14.268,33.105,1.313,2.011
20050421,020605,558199,32.639515,-119.540543,14.271,33.103,1.366,2.114
20050421,020635,558228,32.639390,-119.540671,14.270,33.109,1.372,2.120
20050421,020706,558259,32.639248,-119.540813,14.267,33.110,1.352,2.073
20050421,020735,558288,32.639141,-119.541036,14.267,33.111,1.333,2.030
20050421,020805,558318,32.639085,-119.541300,14.266,33.110,1.366,2.098
20050421,020835,558348,32.639011,-119.541521,14.263,33.116,1.366,2.106
20050421,020905,558378,32.638961,-119.541700,14.262,33.115,1.432,2.253
20050421,020935,558408,32.638920,-119.541975,14.258,33.119,1.379,2.145
20050421,021006,558439,32.638831,-119.542311,14.253,33.124,1.465,2.328
20050421,021035,558468,32.638776,-119.542685,14.260,33.116,1.472,2.320
20050421,021105,558498,32.638716,-119.543080,14.244,33.128,1.445,2.252
20050421,021135,558528,32.638693,-119.543468,14.239,33.128,1.386,2.126
20050421,021205,558558,32.638743,-119.543823,14.235,33.132,1.379,2.111
20050421,021235,558588,32.638866,-119.544148,14.233,33.130,1.386,2.127
20050421,021305,558618,32.639013,-119.544420,14.227,33.131,1.426,2.213
20050421,021335,558648,32.639138,-119.544560,14.218,33.138,1.392,2.146
20050421,021405,558678,32.639258,-119.544633,14.217,33.135,1.366,2.088
20050421,021435,558708,32.639523,-119.544688,14.215,33.134,1.372,2.099
20050421,021506,558739,32.640018,-119.544433,14.215,33.131,1.286,1.915
20050421,021536,558769,32.640368,-119.543580,14.214,33.129,1.359,2.055
20050421,021605,558798,32.640823,-119.542533,14.220,33.120,1.372,2.080
20050421,021636,558829,32.641371,-119.541291,14.220,33.118,1.339,2.009
20050421,021705,558858,32.641985,-119.539886,14.214,33.122,1.372,2.075
20050421,021735,558888,32.642626,-119.538436,14.204,33.125,1.452,2.238
20050421,021805,558918,32.643273,-119.536945,14.200,33.125,1.379,2.088
20050421,021835,558948,32.643930,-119.535461,14.197,33.128,1.392,2.112
20050421,021905,558978,32.644578,-119.533966,14.194,33.127,1.485,2.302
20050421,021935,559008,32.645236,-119.532483,14.197,33.119,1.505,2.341
20050421,022005,559038,32.645886,-119.530978,14.191,33.121,1.432,2.188
20050421,022035,559068,32.646556,-119.529496,14.188,33.117,1.392,2.106
20050421,022105,559098,32.647200,-119.527981,14.185,33.121,1.366,2.051
20050421,022135,559128,32.647868,-119.526495,14.186,33.118,1.379,2.076
20050421,022206,559159,32.648530,-119.525016,14.181,33.121,1.366,2.048
20050421,022235,559188,32.649191,-119.523525,14.175,33.123,1.426,2.167
20050421,022306,559219,32.649875,-119.522026,14.175,33.120,1.359,2.032
20050421,022335,559248,32.650553,-119.520525,14.161,33.131,1.399,2.111
20050421,022405,559278,32.651221,-119.519020,14.158,33.130,1.386,2.084
20050421,022436,559309,32.651885,-119.517526,14.155,33.129,1.445,2.203
20050421,022505,559338,32.652571,-119.516033,14.159,33.119,1.465,2.244
20050421,022535,559368,32.653248,-119.514523,14.137,33.135,1.472,2.256
20050421,022605,559398,32.653900,-119.513003,14.106,33.156,1.525,2.366
20050421,022635,559428,32.654563,-119.511495,14.098,33.157,1.492,2.296
20050421,022705,559458,32.655231,-119.509976,14.100,33.148,1.498,2.308
20050421,022735,559488,32.655881,-119.508470,14.097,33.144,1.505,2.321
20050421,022805,559518,32.656545,-119.506948,14.064,33.162,1.492,2.293
20050421,022835,559549,32.657168,-119.505433,14.062,33.158,1.465,2.237
20050421,022905,559578,32.657823,-119.503951,14.073,33.141,1.432,2.168
20050421,022935,559608,32.658488,-119.502443,14.078,33.128,1.399,2.101
20050421,023005,559638,32.659148,-119.500928,14.083,33.119,1.412,2.127
20050421,023036,559669,32.659816,-119.499400,14.093,33.106,1.452,2.207
20050421,023105,559698,32.660488,-119.497870,14.093,33.104,1.505,2.317
20050421,023135,559728,32.661131,-119.496330,14.089,33.111,1.572,2.457
20050421,023205,559758,32.661805,-119.494830,14.087,33.110,1.625,2.570
20050421,023235,559788,32.662460,-119.493296,14.059,33.132,1.599,2.513
20050421,023305,559818,32.663135,-119.491768,14.038,33.148,1.672,2.671
20050421,023335,559848,32.663815,-119.490221,14.029,33.152,1.686,2.700
20050421,023405,559878,32.664475,-119.488683,14.021,33.154,1.646,2.612
20050421,023436,559909,32.665151,-119.487145,14.020,33.148,1.625,2.567
20050421,023506,559939,32.665825,-119.485618,14.025,33.138,1.592,2.496
20050421,023535,559968,32.666500,-119.484066,14.029,33.129,1.512,2.326
20050421,023606,559999,32.667151,-119.482520,14.034,33.119,1.552,2.409
20050421,023635,560028,32.667820,-119.480961,14.041,33.110,1.532,2.367
20050421,023705,560058,32.668500,-119.479426,14.046,33.104,1.525,2.353
20050421,023735,560088,32.669168,-119.477881,14.049,33.100,1.525,2.353
20050421,023805,560118,32.669831,-119.476328,14.051,33.099,1.492,2.283
20050421,023836,560149,32.670498,-119.474776,14.056,33.095,1.479,2.256
20050421,023905,560178,32.671185,-119.473218,14.061,33.093,1.479,2.256
20050421,023936,560209,32.671868,-119.471653,14.068,33.089,1.419,2.134
20050421,024005,560238,32.672555,-119.470081,14.075,33.086,1.405,2.106
20050421,024035,560268,32.673248,-119.468526,14.086,33.081,1.405,2.106
20050421,024105,560298,32.673925,-119.466950,14.099,33.072,1.372,2.040
20050421,024135,560328,32.674611,-119.465373,14.114,33.065,1.326,1.949
20050421,024205,560358,32.675315,-119.463801,14.125,33.060,1.240,1.783
20050421,024235,560388,32.675981,-119.462211,14.139,33.056,1.267,1.833
20050421,024306,560419,32.676668,-119.460651,14.160,33.044,1.161,1.636
20050421,024335,560448,32.677328,-119.459075,14.182,33.036,1.161,1.636
20050421,024405,560478,32.678026,-119.457520,14.202,33.029,1.148,1.612
20050421,024435,560508,32.678710,-119.455930,14.210,33.033,1.141,1.600
20050421,024506,560539,32.679411,-119.454351,14.220,33.040,1.220,1.746
20050421,024535,560568,32.680115,-119.452750,14.225,33.045,1.154,1.624
20050421,024605,560598,32.680810,-119.451131,14.221,33.061,1.207,1.721